Date String (YYYY-MM-DD hh:mm:ss) UTC,Instrument flags,absolute air pressure of the measurement (hPa),sample flow rate (lpm),inlet stack bypass flow (lpm),air temperature of the measurement (°C),ambient temperature measured by the external sensor (°C),aerosol sample conditioner tube jacket temperature (°C),OPC LED temperature (°C),internal box temperature (°C),relative humidity of the measurement (%),span deviation,mass concentration of particles derived from Lorenz-Mie calculation of OPC scattering (μg/m³),mass concentration of particles derived from Lorenz-Mie calculation of OPC scattering (μg/m³),mass concentration of particles derived from Lorenz-Mie calculation of OPC scattering (μg/m³)
DateTimeUTC,F1_M11,P_M11,Q1_M11,Q2_M11,T1_M11,T2_M11,T3_M11,T4_M11,T5_M11,U1_M11,ZSPAN_M11,X0_M11,X2_M11,X1_M11
2023-06-17 13:00:00,SystemResetWarning,0831.7,5.00,000.00,029.7,028.1,000.0,038.3,031.2,27.0,0000.0,0004.29,0002.87,0002.46
2023-06-17 13:01:00,SystemResetWarning,0831.7,5.00,000.00,029.7,028.1,000.0,038.3,031.2,26.6,0000.0,0004.32,0002.83,0002.37
2023-06-17 13:02:00,SystemResetWarning,0831.7,5.00,000.00,029.7,028.1,000.0,038.3,031.2,26.4,0000.0,0004.09,0002.73,0002.32
2023-06-17 13:03:00,SystemResetWarning,0831.7,5.00,000.00,029.7,028.1,000.0,038.3,031.3,26.2,0000.0,0004.06,0002.71,0002.30
2023-06-17 13:04:00,SystemResetWarning,0831.7,5.00,000.00,029.7,028.1,000.0,038.3,031.3,26.6,0000.0,0003.94,0002.67,0002.27
2023-06-17 13:05:00,SystemResetWarning,0831.7,5.00,000.00,029.7,028.1,000.0,038.3,031.3,25.6,0000.0,0003.80,0002.66,0002.27
2023-06-17 13:06:00,SystemResetWarning,0831.7,5.00,000.00,029.7,028.1,000.0,038.3,031.2,25.4,0000.0,0003.74,0002.67,0002.30
2023-06-17 13:07:00,SystemResetWarning,0831.7,5.00,000.00,029.8,028.1,000.0,038.3,031.3,26.1,0000.0,0003.81,0002.71,0002.35
2023-06-17 13:08:00,SystemResetWarning,0831.7,5.00,000.00,029.8,028.1,000.0,038.3,031.3,26.5,0000.0,0003.69,0002.73,0002.37
2023-06-17 13:09:00,SystemResetWarning,0831.7,5.00,000.00,029.8,028.1,000.0,038.3,031.3,27.0,0000.0,0003.60,0002.70,0002.37
2023-06-17 13:10:00,SystemResetWarning,0831.6,5.00,000.00,029.8,028.1,000.0,038.3,031.3,26.6,0000.0,0003.69,0002.74,0002.39
2023-06-17 13:11:00,SystemResetWarning,0831.6,5.00,000.00,029.8,028.1,000.0,038.3,031.3,26.5,0000.0,0003.78,0002.78,0002.40
2023-06-17 13:12:00,SystemResetWarning,0831.7,5.00,000.00,029.8,028.2,000.0,038.4,031.3,26.3,0000.0,0003.64,0002.72,0002.42
2023-06-17 13:13:00,SystemResetWarning,0831.7,5.01,000.00,029.8,028.2,000.0,038.4,031.3,26.2,0000.0,0003.73,0002.75,0002.45
2023-06-17 13:14:00,SystemResetWarning,0831.7,5.00,000.00,029.8,028.2,000.0,038.4,031.4,25.3,0000.0,0003.71,0002.76,0002.50
2023-06-17 13:15:00,SystemResetWarning,0831.7,4.99,000.00,029.8,028.2,000.0,038.4,031.3,25.1,0000.0,0003.75,0002.83,0002.58
2023-06-17 13:16:00,SystemResetWarning,0831.7,5.00,000.00,029.8,028.2,000.0,038.4,031.3,25.3,0000.0,0003.82,0002.91,0002.62
2023-06-17 13:17:00,SystemResetWarning,0831.7,5.00,000.00,029.8,028.2,000.0,038.4,031.3,26.3,0000.0,0003.87,0002.95,0002.63
2023-06-17 13:18:00,SystemResetWarning,0831.7,5.00,000.00,029.8,028.2,000.0,038.4,031.3,26.6,0000.0,0003.89,0002.97,0002.64
2023-06-17 13:19:00,SystemResetWarning,0831.7,5.01,000.00,029.8,028.2,000.0,038.4,031.4,25.6,0000.0,0003.92,0003.01,0002.69
2023-06-17 13:20:00,SystemResetWarning,0831.7,5.00,000.00,029.8,028.2,000.0,038.4,031.3,25.3,0000.0,0004.13,0003.11,0002.77
2023-06-17 13:21:00,SystemResetWarning,0831.7,5.00,000.00,029.8,028.3,000.0,038.4,031.4,25.4,0000.0,0004.16,0003.14,0002.84
2023-06-17 13:22:00,SystemResetWarning,0831.7,5.00,000.00,029.9,028.3,000.0,038.4,031.3,26.0,0000.0,0004.14,0003.17,0002.89
2023-06-17 13:23:00,SystemResetWarning,0831.7,5.00,000.00,029.9,028.3,000.0,038.4,031.4,26.3,0000.0,0004.20,0003.20,0002.95
2023-06-17 13:24:00,SystemResetWarning,0831.7,5.00,000.00,029.9,028.3,000.0,038.4,031.4,25.6,0000.0,0004.09,0003.22,0002.99
2023-06-17 13:25:00,SystemResetWarning,0831.7,5.00,000.00,029.9,028.3,000.0,038.4,031.4,26.3,0000.0,0004.16,0003.23,0002.99
2023-06-17 13:26:00,SystemResetWarning,0831.7,4.99,000.00,029.9,028.3,000.0,038.4,031.4,26.1,0000.0,0004.22,0003.24,0002.97
2023-06-17 13:27:00,SystemResetWarning,0831.7,5.00,000.00,029.9,028.3,000.0,038.4,031.4,25.8,0000.0,0004.18,0003.22,0002.96
2023-06-17 13:28:00,SystemResetWarning,0831.7,5.00,000.00,029.9,028.3,000.0,038.5,031.4,25.7,0000.0,0004.13,0003.21,0002.99
2023-06-17 13:29:00,SystemResetWarning,0831.7,5.00,000.00,029.9,028.3,000.0,038.5,031.4,25.8,0000.0,0004.12,0003.23,0003.03
2023-06-17 13:30:00,SystemResetWarning,0831.7,5.01,000.00,029.9,028.3,000.0,038.4,031.3,25.5,0000.0,0004.17,0003.23,0003.05
2023-06-17 13:31:00,SystemResetWarning,0831.7,5.01,000.00,029.9,028.3,000.0,038.5,031.4,25.3,0000.0,0004.12,0003.24,0003.06
2023-06-17 13:32:00,SystemResetWarning,0831.7,5.00,000.00,029.9,028.3,000.0,038.5,031.4,25.6,0000.0,0004.18,0003.25,0003.06
2023-06-17 13:33:00,SystemResetWarning,0831.7,5.00,000.00,029.9,028.3,000.0,038.5,031.4,25.7,0000.0,0004.23,0003.25,0003.06
2023-06-17 13:34:00,SystemResetWarning,0831.7,4.99,000.00,029.9,028.3,000.0,038.5,031.4,26.1,0000.0,0004.28,0003.25,0003.04
2023-06-17 13:35:00,SystemResetWarning,0831.7,5.00,000.00,030.0,028.4,000.0,038.5,031.5,26.1,0000.0,0004.31,0003.25,0003.02
2023-06-17 13:36:00,SystemResetWarning,0831.7,5.00,000.00,030.0,028.4,000.0,038.5,031.5,26.6,0000.0,0004.34,0003.25,0003.02
2023-06-17 13:37:00,SystemResetWarning,0831.7,4.99,000.00,030.0,028.4,000.0,038.5,031.5,26.4,0000.0,0004.42,0003.25,0003.03
2023-06-17 13:38:00,SystemResetWarning,0831.7,5.01,000.00,030.0,028.4,000.0,038.5,031.4,26.0,0000.0,0004.44,0003.26,0003.05
2023-06-17 13:39:00,SystemResetWarning,0831.7,5.01,000.00,030.0,028.4,000.0,038.5,031.5,26.3,0000.0,0004.46,0003.26,0003.06
2023-06-17 13:40:00,SystemResetWarning,0831.7,5.00,000.00,030.0,028.4,000.0,038.5,031.5,26.8,0000.0,0004.44,0003.26,0003.04
2023-06-17 13:41:00,SystemResetWarning,0831.7,4.99,000.00,030.0,028.4,000.0,038.5,031.4,26.9,0000.0,0004.34,0003.26,0003.05
2023-06-17 13:42:00,SystemResetWarning,0831.7,4.99,000.00,030.0,028.4,000.0,038.5,031.5,27.1,0000.0,0005.16,0003.26,0003.07
2023-06-17 13:43:00,SystemResetWarning,0832.1,5.00,000.00,030.0,028.4,000.0,038.5,031.5,26.8,0000.0,0005.71,0003.29,0003.10
2023-06-17 13:44:00,SystemResetWarning,0831.9,5.00,000.00,030.0,028.4,000.0,038.5,031.5,26.3,0000.0,0005.70,0003.31,0003.13
2023-06-17 13:45:00,SystemResetWarning,0832.1,5.01,000.00,030.0,028.4,000.0,038.5,031.5,26.0,0000.0,0005.68,0003.35,0003.17
2023-06-17 13:46:00,SystemResetWarning,0831.9,5.00,000.00,030.0,028.5,000.0,038.6,031.5,26.5,0000.0,0005.80,0003.40,0003.21
2023-06-17 13:47:00,SystemResetWarning,0832.0,5.01,000.00,030.0,028.5,000.0,038.6,031.6,26.6,0000.0,0005.96,0003.42,0003.23
2023-06-17 13:48:00,SystemResetWarning,0832.1,5.00,000.00,030.1,028.5,000.0,038.6,031.5,26.7,0000.0,0005.92,0003.45,0003.26
2023-06-17 13:49:00,SystemResetWarning,0832.3,5.00,000.00,030.1,028.5,000.0,038.6,031.6,26.4,0000.0,0006.07,0003.48,0003.27
2023-06-17 13:50:00,SystemResetWarning,0832.3,5.00,000.00,030.1,028.5,000.0,038.6,031.6,26.4,0000.0,0006.18,0003.51,0003.28
2023-06-17 13:51:00,SystemResetWarning,0831.9,5.01,000.00,030.1,028.5,000.0,038.6,031.6,26.5,0000.0,0006.26,0003.54,0003.30
2023-06-17 13:52:00,SystemResetWarning,0832.2,5.01,000.00,030.1,028.5,000.0,038.6,031.6,26.3,0000.0,0006.50,0003.58,0003.32
2023-06-17 13:53:00,SystemResetWarning,0832.1,5.00,000.00,030.1,028.5,000.0,038.6,031.6,26.3,0000.0,0006.22,0003.63,0003.33
2023-06-17 13:54:00,SystemResetWarning,0831.8,5.00,000.00,030.1,028.5,000.0,038.6,031.6,25.5,0000.0,0005.45,0003.62,0003.33
2023-06-17 13:55:00,SystemResetWarning,0831.9,5.00,000.00,030.1,028.5,000.0,038.6,031.6,25.7,0000.0,0005.44,0003.63,0003.34
2023-06-17 13:56:00,SystemResetWarning,0831.7,5.00,000.00,030.1,028.5,000.0,038.6,031.5,25.8,0000.0,0005.54,0003.66,0003.34
2023-06-17 13:57:00,SystemResetWarning,0831.7,4.99,000.00,030.1,028.5,000.0,038.6,031.5,25.9,0000.0,0005.54,0003.65,0003.34
2023-06-17 13:58:00,SystemResetWarning,0831.7,4.99,000.00,030.1,028.5,000.0,038.6,031.6,26.0,0000.0,0005.46,0003.66,0003.35
2023-06-17 13:59:00,SystemResetWarning,0831.7,5.00,000.00,030.1,028.6,000.0,038.7,031.7,25.6,0000.0,0005.57,0003.69,0003.36
